Вернуться в каталог

DELTA 1 DEB

АктивенUNKNOWN
NORAD 18600·DEBRIS·🇺🇸 United States

Запущен Jul 29, 1976 с Vandenberg Space Force Base

Loading…

Ближайшие Пролёты (ближайшие 24 часа)

TLE

СвежийSource: Space-Track

Эпоха: Sep 13, 2026, 21:37 UTC

1 18600U 76077FF  26256.90102022  .00000361  00000-0  95069-2 0  9990
2 18600 102.0452 315.8335 0780031 293.1061 116.1602 10.91671503477884

Отслеживайте DELTA 1 DEB в реальном времени с AllMySat

Download on the App Store